AK6MW Weather Reports


time (UTC)temp
C
wind
direction
speed
KPH
gust
KPH
rain 1hr
cm
rain 24hr
cm
rain mn
cm
humidity
%
barometer
mb
20260506175849 13 0.0 0.0 0.00 0.00 0.00 81 1021.1
20260506174852 12 0.0 0.0 0.00 0.00 0.00 81 1021.1
20260506173849 12 0.0 0.0 0.00 0.00 0.00 79 1020.9
20260506172849 12 0.0 0.0 0.00 0.00 0.00 80 1020.9
20260506171850 12 0.0 0.0 0.00 0.00 0.00 79 1020.9
20260506170910 12 0.0 0.0 0.00 0.00 0.00 78 1020.8
20260506165849 12 0.0 0.0 0.00 0.00 0.00 75 1020.8
20260506164849 12 0.0 0.0 0.00 0.00 0.00 78 1020.8
20260506163909 11 0.0 0.0 0.00 0.00 0.00 76 1020.8
20260506162850 12 0.0 0.0 0.00 0.00 0.00 74 1021.1
20260506161931 12 0.0 0.0 0.00 0.00 0.00 78 1020.9
20260506160910 11 0.0 0.0 0.00 0.00 0.00 82 1020.9
20260506155849 11 0.0 0.0 0.00 0.00 0.00 84 1020.9
20260506154849 10 0.0 0.0 0.00 0.00 0.00 82 1020.6
20260506153931 9 0.0 0.0 0.00 0.00 0.00 85 1020.9
20260506152850 10 0.0 0.0 0.00 0.00 0.00 81 1020.7
20260506151909 10 0.0 0.0 0.00 0.00 0.00 81 1020.7
20260506150849 10 0.0 0.0 0.00 0.00 0.00 88 1020.7
20260506145850 8 0.0 0.0 0.00 0.00 0.00 95 1020.7
20260506144849 7 0.0 0.0 0.00 0.00 0.00 99 1020.7
20260506143910 7 0.0 0.0 0.00 0.00 0.00 99 1020.4
20260506142849 6 0.0 0.0 0.00 0.00 0.00 99 1020.4
20260506141849 6 0.0 0.0 0.00 0.00 0.00 99 1020.2
20260506140848 5 0.0 0.0 0.00 0.00 0.00 99 1020.2
20260506135850 5 0.0 0.0 0.00 0.00 0.00 99 1020.4
20260506134848 5 0.0 0.0 0.00 0.00 0.00 98 1020.0
20260506133910 5 0.0 0.0 0.00 0.00 0.00 99 1020.1
20260506132849 5 0.0 0.0 0.00 0.00 0.00 99 1020.1
20260506131850 5 0.0 0.0 0.00 0.00 0.00 98 1019.8
20260506130849 5 0.0 0.0 0.00 0.00 0.00 98 1019.8
20260506125848 6 0.0 0.0 0.00 0.00 0.00 99 1019.8
20260506124850 6 0.0 0.0 0.00 0.00 0.00 99 1019.7
20260506123849 6 0.0 0.0 0.00 0.00 0.00 99 1019.6
20260506122849 6 0.0 0.0 0.00 0.00 0.00 99 1019.6
20260506121849 6 0.0 0.0 0.00 0.00 0.00 99 1019.6
20260506120912 6 0.0 0.0 0.00 0.00 0.00 99 1019.3
20260506115850 6 0.0 0.0 0.00 0.00 0.00 99 1019.9
20260506114848 6 0.0 0.0 0.00 0.00 0.00 99 1019.7
20260506113910 6 0.0 0.0 0.00 0.00 0.00 99 1019.6
20260506112850 6 0.0 0.0 0.00 0.00 0.00 99 1019.4
20260506111849 6 0.0 0.0 0.00 0.00 0.00 99 1019.6
20260506110852 6 0.0 0.0 0.00 0.00 0.00 99 1019.3
20260506105848 6 0.0 0.0 0.00 0.00 0.00 99 1019.3
20260506104848 6 0.0 0.0 0.00 0.00 0.00 99 1019.2
20260506103909 6 0.0 0.0 0.00 0.00 0.00 99 1019.1
20260506102849 6 0.0 0.0 0.00 0.00 0.00 99 1019.2
20260506101850 6 0.0 0.0 0.00 0.00 0.00 99 1019.1
20260506100849 6 0.0 0.0 0.00 0.00 0.00 99 1019.2
20260506095850 6 0.0 0.0 0.00 0.00 0.00 99 1019.2
20260506094848 6 0.0 0.0 0.00 0.00 0.00 99 1019.0
20260506093850 6 0.0 0.0 0.00 0.00 0.00 99 1018.8
20260506092910 6 0.0 0.0 0.00 0.00 0.00 99 1019.1
20260506091851 6 0.0 0.0 0.00 0.00 0.00 99 1019.0
20260506090849 6 0.0 0.0 0.00 0.00 0.00 99 1019.3
20260506085850 5 0.0 0.0 0.00 0.00 0.00 99 1019.1
20260506084849 5 0.0 0.0 0.00 0.00 0.00 99 1019.0
20260506083849 5 0.0 0.0 0.00 0.00 0.00 99 1019.1
20260506082850 5 0.0 0.0 0.00 0.00 0.00 99 1018.9
20260506081849 5 0.0 0.0 0.00 0.00 0.00 99 1019.2
20260506080849 5 0.0 0.0 0.00 0.00 0.00 99 1018.8
20260506072852 5 0.0 0.0 0.00 0.00 0.00 99 1019.1
20260506071849 5 0.0 0.0 0.00 0.00 0.00 99 1018.8
20260506070850 5 0.0 0.0 0.00 0.00 0.00 99 1018.6
20260506061849 5 0.0 0.0 0.00 0.00 0.00 99 1018.2
20260506060849 5 0.0 0.0 0.00 0.00 0.00 99 1018.2
20260506050849 5 0.0 0.0 0.00 0.00 0.00 99 1017.8
20260506044850 5 0.0 0.0 0.00 0.00 0.00 99 1017.8
20260506043852 5 0.0 0.0 0.00 0.00 0.00 99 1017.6
20260506042849 5 0.0 0.0 0.00 0.00 0.00 99 1017.7
20260506041848 5 0.0 0.0 0.00 0.00 0.00 99 1017.3
20260506040850 6 0.0 0.0 0.00 0.00 0.00 99 1017.3
20260506035848 6 0.0 0.0 0.00 0.00 0.00 99 1017.4
20260506034851 6 0.0 0.0 0.00 0.00 0.00 99 1017.0
20260506033848 6 0.0 0.0 0.00 0.00 0.00 99 1016.8
20260506032934 7 0.0 0.0 0.00 0.00 0.00 99 1016.7
20260506031849 6 0.0 0.0 0.00 0.00 0.00 99 1016.7
20260506030849 7 0.0 0.0 0.00 0.00 0.00 99 1016.6
20260506025848 7 0.0 0.0 0.00 0.00 0.00 99 1016.4
20260506024848 7 0.0 0.0 0.00 0.00 0.00 99 1016.0
20260506023848 7 0.0 0.0 0.00 0.00 0.00 99 1016.2
20260506022849 7 0.0 0.0 0.00 0.00 0.00 99 1016.0
20260506021914 6 0.0 0.0 0.00 0.00 0.00 99 1015.8
20260506020911 7 0.0 0.0 0.00 0.00 0.00 99 1015.8
20260506015952 7 0.0 0.0 0.00 0.00 0.00 99 1015.8
20260506014911 7 0.0 0.0 0.00 0.00 0.00 99 1015.3
20260506013910 7 0.0 0.0 0.00 0.00 0.00 99 1015.6
20260506012852 6 0.0 0.0 0.00 0.00 0.00 99 1015.6
20260506011850 7 0.0 0.0 0.00 0.00 0.00 99 1015.6
20260506010849 7 0.0 0.0 0.00 0.00 0.00 99 1015.6
20260506005851 7 0.0 0.0 0.00 0.00 0.00 99 1015.7
20260506004849 7 0.0 0.0 0.00 0.00 0.00 99 1015.7
20260506003850 6 0.0 0.0 0.00 0.00 0.00 99 1015.3
20260506002852 6 0.0 0.0 0.00 0.00 0.00 99 1015.5
20260506001849 6 0.0 0.0 0.00 0.00 0.00 99 1015.2
20260506000849 6 0.0 0.0 0.00 0.00 0.00 99 1015.2
20260505235849 6 0.0 0.0 0.00 0.00 0.00 99 1015.1
20260505234851 6 0.0 0.0 0.00 0.00 0.00 99 1014.9
20260505233912 6 0.0 0.0 0.00 0.00 0.00 99 1015.3
20260505232849 7 0.0 0.0 0.00 0.00 0.00 99 1015.3
20260505231849 6 0.0 0.0 0.00 0.00 0.00 99 1015.2
20260505230912 6 0.0 0.0 0.00 0.00 0.00 99 1015.3
20260505225850 6 0.0 0.0 0.00 0.00 0.00 99 1015.3
20260505224850 6 0.0 0.0 0.00 0.00 0.00 99 1015.5
20260505223852 6 0.0 0.0 0.00 0.00 0.00 99 1015.5
20260505222914 6 0.0 0.0 0.00 0.00 0.00 99 1015.5
20260505221849 6 0.0 0.0 0.00 0.00 0.00 99 1015.8
20260505220849 6 0.0 0.0 0.00 0.00 0.00 99 1015.5
20260505215849 6 0.0 0.0 0.00 0.00 0.00 99 1015.8
20260505214848 6 0.0 0.0 0.00 0.00 0.00 99 1015.7
20260505213849 6 0.0 0.0 0.00 0.00 0.00 99 1015.6
20260505212849 6 0.0 0.0 0.00 0.00 0.00 99 1015.8
20260505211850 6 0.0 0.0 0.00 0.00 0.00 99 1016.0
20260505210910 6 0.0 0.0 0.00 0.00 0.00 99 1016.0
20260505205849 6 0.0 0.0 0.00 0.00 0.00 99 1015.8
20260505204850 6 0.0 0.0 0.00 0.00 0.00 99 1016.0
20260505203853 6 0.0 0.0 0.00 0.00 0.00 99 1015.8
20260505202850 6 0.0 0.0 0.00 0.00 0.00 99 1015.8
20260505201848 6 0.0 0.0 0.00 0.00 0.00 99 1015.7
20260505200849 6 0.0 0.0 0.00 0.00 0.00 99 1015.7
20260505195849 6 0.0 0.0 0.00 0.00 0.00 99 1015.7
20260505194909 6 0.0 0.0 0.00 0.00 0.00 99 1015.6
20260505193849 6 0.0 0.0 0.00 0.00 0.00 99 1015.6
20260505192910 6 0.0 0.0 0.00 0.00 0.00 99 1015.8
20260505191850 6 0.0 0.0 0.00 0.00 0.00 99 1015.7
20260505190908 5 0.0 0.0 0.00 0.00 0.00 99 1015.6
20260505185849 5 0.0 0.0 0.00 0.00 0.00 99 1015.6
20260505184914 5 0.0 0.0 0.00 0.00 0.00 99 1015.6
20260505183849 6 0.0 0.0 0.00 0.00 0.00 99 1015.5
20260505182850 5 0.0 0.0 0.00 0.00 0.00 99 1015.5
20260505181848 5 0.0 0.0 0.00 0.00 0.00 99 1015.3
20260505180848 5 0.0 0.0 0.00 0.00 0.00 99 1015.1